{"data":{"norad_id":67744,"intl_designator":"2026-026Z","name":"STARLINK-36692","alt_names":[],"object_type":"PAYLOAD","status":"ACTIVE","operator":null,"country":"US","launch_date":"2026-02-11","launch_site_code":"AFWTR","launch_vehicle":null,"mission":null,"orbit_class":"UNKNOWN","rcs_meters":null,"size_class":null,"mass_kg":null,"dimensions":null,"purposes":["comms"],"wikipedia_slug":null,"has_3d_model":false,"image_url":null,"decayed_at":null,"tle_current":{"epoch":"2026-09-19T20:16:11.895168Z","epoch_age_seconds":123068,"freshness":"FRESH","line1":"1 67744U 26026Z   26262.84458212  .00010699  00000+0  33328-3 0  9992","line2":"2 67744  97.2855 314.7386 0001086  95.9856 264.1511 15.33443590 33884","mean_motion":15.3344359,"eccentricity":0.0001086,"inclination_deg":97.2855,"raan_deg":314.7386,"arg_perigee_deg":95.9856,"mean_anomaly_deg":264.1511,"bstar":0.00033328,"rev_number":3388,"period_min":93.906291003505,"perigee_km":464.80414552678,"apogee_km":466.29059377187,"semimajor_km":6843.6843696493,"source":"CELESTRAK","updated_at":"2026-09-20T09:00:43.661325Z"}}}